This is the latest recevied weather packets stored in our database for station/object KF7SOJ. If no packets are shown the sender has not sent any weather packets the latest 10 day(s).
| Time | Temp. | Humidity | Pressure | Rain* | Wind** | Luminosity | Snow |
|---|---|---|---|---|---|---|---|
| 1788319536 | 22.22° C | 36% | 927.5 hPa | 0 mm | - | 0 W/m² | - |
| 1788319231 | 22.22° C | 37% | 927.4 hPa | 0 mm | - | 0 W/m² | - |
| 1788318926 | 22.22° C | 37% | 927.4 hPa | 0 mm | - | 0 W/m² | - |
| 1788318623 | 22.22° C | 37% | 927.1 hPa | 0 mm | - | 0 W/m² | - |
| 1788318322 | 22.22° C | 37% | 927.3 hPa | 0 mm | - | 0 W/m² | - |
| 1788318023 | 22.78° C | 37% | 927.2 hPa | 0 mm | - | 0 W/m² | - |
| 1788317722 | 22.78° C | 37% | 927.2 hPa | 0 mm | - | 0 W/m² | - |
| 1788317418 | 22.78° C | 38% | 927.2 hPa | 0 mm | - | 0 W/m² | - |
| 1788317114 | 22.78° C | 39% | 927.2 hPa | 0 mm | - | 0 W/m² | - |
| 1788316813 | 22.78° C | 39% | 927.1 hPa | 0 mm | - | 0 W/m² | - |
| 1788316509 | 22.78° C | 39% | 927.3 hPa | 0 mm | - | 0 W/m² | - |
| 1788316209 | 22.78° C | 40% | 927.1 hPa | 0 mm | - | 0 W/m² | - |
| 1788315904 | 22.78° C | 40% | 927.2 hPa | 0 mm | - | 0 W/m² | - |
| 1788315600 | 22.78° C | 40% | 927.1 hPa | 0 mm | - | 0 W/m² | - |
| 1788315294 | 22.78° C | 40% | 927.1 hPa | 0 mm | - | 0 W/m² | - |
| 1788314989 | 22.78° C | 40% | 927 hPa | 0 mm | - | 0 W/m² | - |
| 1788314686 | 23.33° C | 39% | 927.1 hPa | 0 mm | - | 1 W/m² | - |
| 1788314381 | 23.33° C | 40% | 927 hPa | 0 mm | - | 1 W/m² | - |
| 1788314077 | 23.33° C | 40% | 927 hPa | 0 mm | - | 3 W/m² | - |
| 1788313772 | 23.33° C | 40% | 927.1 hPa | 0 mm | - | 4 W/m² | - |
| 1788313469 | 23.33° C | 40% | 927.1 hPa | 0 mm | - | 7 W/m² | - |
| 1788313167 | 23.89° C | 40% | 927.2 hPa | 0 mm | - | 10 W/m² | - |
| 1788312864 | 23.89° C | 39% | 926.9 hPa | 0 mm | - | 14 W/m² | - |
| 1788312559 | 23.89° C | 37% | 927 hPa | 0 mm | - | 19 W/m² | - |
| 1788312254 | 24.44° C | 37% | 927.2 hPa | 0 mm | - | 22 W/m² | - |
* Rain latest hour (hover to see other rain measurements)
** Current wind speed in m/s (hover to see current wind gust speed)